Regional Weather Roundup
Issued by NWS Wakefield, VA

Home | Current Version | Previous Version | Text Only | Print | Product List | Glossary On
Versions: 1 2 3 4 5 6 7 8 9 10 11 12 13 14 15 16 17 18 19 20 21 22 23 24 25 26 27
000
ASUS41 KAKQ 010615
RWRAKQ

REGIONAL WEATHER ROUNDUP
NATIONAL WEATHER SERVICE WAKEFIELD VA
200 AM EDT MON MAY 01 2017

Note: "fair" indicates few or no clouds below 12,000 feet with no
significant weather and/or obstructions to visibility. * = Denotes
station may not report precipitation (e.g., rain,snow,etc.),
thunder or fog.

VAZ042-051-052>054-056-010700-
NORTHERN VIRGINIA

CITY           SKY/WX    TMP DP  RH WIND       PRES   REMARKS
WASH NATIONAL  MOCLDY    66  63  90 NE8       30.01F
DULLES         PTCLDY    73  62  68 S8        29.98F
FORT BELVOIR   CLEAR     66  63  88 CALM      29.99F
QUANTICO       CLEAR     72  69  90 S12       29.99F
FREDERICKSBRG* CLEAR     73  66  80 S3        29.99F
STAFFORD*      CLEAR     72  66  83 S6        30.03F
WARRENTON      CLEAR     74  61  64 S6        29.98F
CULPEPER*      CLEAR     74  65  74 S6        29.99F
MANASSAS*        N/A     73  64  73 S7        29.98F
LEESBURG*      CLEAR     68  64  88 SE5       29.99F
WINCHESTER     CLEAR     63  59  88 CALM      29.96F
FRONT ROYAL*   CLEAR     70  63  78 S5        29.96S
LURAY*         PTCLDY    72  63  73 SW9       29.98F
$$

VAZ048-049-060>072-079>083-010700-
CENTRAL AND SOUTH CENTRAL VIRGINIA

CITY           SKY/WX    TMP DP  RH WIND       PRES   REMARKS
RICHMOND       CLEAR     72  65  78 S14       30.03F
CHESTERFIELD*  FAIR     N/A N/A N/A S13G18    30.05F
PETERSBURG*    CLEAR     70  62  76 S5        30.06F
HANOVER        CLEAR     74  65  73 S14G22    30.04F
TAPPAHANNOCK*  CLEAR     75  59  57 S9        30.04F
QUINTON*       FAIR      74  64  73 S7        30.04F
CHARLOTTSVILLE CLEAR     72  65  78 S13       29.99F
GORDONSVILLE*  CLEAR     71  65  81 SW8       30.00F
ORANGE*        CLEAR     70  63  78 S9        29.99F
LOUISA*        CLEAR     73  66  78 CALM      30.01S
BUMPASS*       FAIR      71  67  88 S7        30.02S
FARMVILLE*     PTCLDY    71  67  87 SW9       30.02F
CREWE*         FAIR      70  70 100 S8        30.05R
FORT PICKETT*  NOT AVBL
CHASE CITY*    MOCLDY    70  68  95 S6        30.06F
CLARKSVILLE*   FAIR      70  68  94 S8        30.06S
SOUTH HILL*    CLEAR     68  66  92 S12G18    30.13F
LAWRENCEVILLE* FAIR      69  64  84 S9        30.07F
EMPORIA*       CLEAR     68  63  83 SE6       30.10S
$$

VAZ088>098-010700-
SOUTHEAST VIRGINIA

CITY           SKY/WX    TMP DP  RH WIND       PRES   REMARKS
NORFOLK        CLEAR     73  66  78 S17       30.08F
VIRGINIA BEACH PTCLDY    71  65  81 SW12      30.08F
NORFOLK NAVAL  CLEAR     73  66  78 SW13G21   30.09F
WEST POINT*    CLEAR     74  61  63 S10G18    30.07F
SALUDA*        FAIR      74  65  72 S13G21    30.05F
NEWPORT NEWS   CLEAR     72  66  81 SW13      30.07F
LANGLEY AFB    CLEAR     72  67  84 S15       30.07F
FORT EUSTIS    CLEAR     73  67  81 S9        30.05F
WILLIAMSBURG*  CLEAR     73  64  73 S10G16    30.08F
HR EXEC AP*    FAIR      70  64  83 S10G16    30.07F
FRANKLIN*      CLEAR     70  65  85 S8        30.09F
US460-WAKEFLD  CLEAR     71  64  78 VRB7      30.07F
$$

VAZ020-022-025-037-045-010700-
WEST CENTRAL AND SOUTHWEST VIRGINIA

CITY           SKY/WX    TMP DP  RH WIND       PRES   REMARKS
STAUNTON*      CLEAR     67  61  83 SW3       30.02F
WAYNESBORO*    PTCLDY    68  64  87 S5        30.02F
HOT SPRINGS VA LGT RAIN  63  61  94 S10G18    30.10F VSB<1/4
LYNCHBURG      PTCLDY    68  64  87 S12       30.04F
DANVILLE       CLEAR     69  65  86 S8        30.04F
SOUTH BOSTON*  MOCLDY    70  68  95 S10G16    30.05F
MARTINSVILLE   CLOUDY    70  64  82 S6        30.06F
ROANOKE        MOCLDY    72  66  81 SE12      30.02F
BLACKSBURG     CLOUDY    70  62  74 S5        30.07F
DUBLIN*        MOCLDY    68  61  77 SW9G17    30.05F
MARION*        CLOUDY    69  62  77 NW3       30.05F
HILLSVILLE*    CLOUDY    64  64 100 S14G21    30.05F
RICHLANDS*     FAIR      69  58  67 S7G16     29.99F
WISE*          CLOUDY    70  54  56 S8G18     29.97F
ABINGDON*      PTCLDY    72  59  64 SW6       29.98F
$$

MDZ021>025-VAZ099-100-010700-
SOUTHERN MARYLAND AND THE DELMARVA PENINSULA

CITY           SKY/WX    TMP DP  RH WIND       PRES   REMARKS
PATUXENT RIVER MOCLDY    76  69  79 S13       30.01F
BAY BRIDGE APT CLOUDY    59  57  94 E3        30.02F FOG
LEONARDTOWN    PTCLDY    73  64  73 S7        30.03F
DOVER          FOG       57  57 100 E3        30.04F VSB 3/4
GEORGETOWN     CLOUDY    58  56  93 E5        30.05F FOG
EASTON         CLEAR     60  58  91 E5        30.06F FOG
CAMBRIDGE      PTCLDY    64  61  88 E3        30.02F
SALISBURY      CLOUDY    70  67  90 CALM      30.03F
OCEAN CITY     CLOUDY    73  67  81 SW14      30.05F
WALLOPS ISLAND PTCLDY    68  67  96 S13       30.05F
ACCOMACK*      CLEAR     74  67  78 SW12G17   30.06F
$$

NCZ012>017-030>032-010700-
NORTH CENTRAL AND EASTERN NORTH CAROLINA

CITY           SKY/WX    TMP DP  RH WIND       PRES   REMARKS
ROANOKE RAPIDS MOCLDY    68  66  94 S8        30.09F
RALEIGH        MOCLDY    70  66  87 S9        30.09F
ELIZABETH CITY CLEAR     71  69  93 SW14      30.12F
AHOSKIE*         N/A     69  66  90 S8        30.10F
EDENTON*       CLEAR     73  69  87 SW8       30.14S
CURRITUCK*     CLEAR     72  70  93 SW8       30.12F
KILL DEVIL HLS CLEAR     72  69  91 CALM      30.13S
MANTEO         CLEAR     72  69  90 SW16      30.14F
CAPE HATTERAS  CLEAR     73  68  84 SW10      30.16F HAZE
TARBORO*       NOT AVBL
GOLDSBORO      CLEAR     70  70 100 S8        30.09F
WASHINGTON     CLEAR     69  67  92 S6        30.13F
GREENVILLE     PTCLDY    70  70 100 S10       30.13F
NEW BERN       PTCLDY    70  68  93 S7        30.15F
WILMINGTON     PTCLDY    72  69  90 S10       30.12F
$$

VAZ048-010700-
ELSEWHERE

CITY           SKY/WX    TMP DP  RH WIND       PRES   REMARKS
HARRISBURG PA  CLOUDY    57  52  83 E9        30.02F
BALTIMORE      CLOUDY    59  57  93 E10       30.02F
ANNAPOLIS      MOCLDY    62  61  96 E3        30.01F
ANDREWS AFB    CLEAR     62  60  93 E5        30.00F
PHILADELPHIA   CLOUDY    52  50  93 NE7       30.07F
HENDERSON NC   MOCLDY    66  63  89 S9        30.08F
GREENSBORO     CLOUDY    70  67  90 S14       30.05F
ROCKY MOUNT    MOCLDY    70  68  93 S8        30.10F
$$

VAZ100-010700-
MARINE

STATION/POSITION TIME  TEMP    WIND        PRES    WAVE   SWELL
                       AIR SEA DIR/SP/G            HT/PER HT/PER
                 (UTC) (F)     (DEG/KT/KT) (MB)    (FT/S) (FT/S)
CAPE MAY NJ      0548      60   70/  2/  3 1017.2F
LEWES DE         0542      60   90/  3/  4 1017.5F
15NM E FENWICK I 0450   60 58  260/  2/  4 1018.9    3/ 5   3/ 5
OCEAN-CITY-INLET 0542      56  210/ 11/ 12 1017.8F
WACHAPREAGUE VA  0542      75  220/  8/ 14 1017.6F
THOMAS POINT MD  0600   61 63   70/  6/  7   N/A
GOOSES REEF MD   0600   68 59  140/  6/  6 1016.9    1/ 2
COVE POINT MD    0542          200/  7/ 10 1016.9F
SOLOMONS ISLAND  0536      64  210/ 12/ 15   N/A
BISHOPS HEAD MD  0548      73  200/ 16/ 20 1016.9F
PINEY POINT MD   0542          230/ 13/ 14   N/A
POTOMAC MD       0600   75 67  230/ 16/ 17 1015.9    1/ 2
CAMBRIDGE MD     0542      70                N/A
LEWISETTA VA     0542      74  220/ 11/ 14 1016.5F
RAPPAHANNOCK LGT 0542          190/ 19/ 20 1018.4F
STINGRAY PT      0600   73 67  240/ 16/ 19 1017.6    2/ 2
YORK RVR RNG VA  0542          220/ 19/ 22 1017.2F
YORKTOWN VA      0542      67  210/ 11/ 17 1017.7F
JAMESTOWN VA     0600   73 74  200/ 12/ 16   N/A
DOMINION TERM VA 0542          200/ 15/ 18 1018.3F
KIPTOPEKE VA     0542      69  200/ 12/ 13   N/A
CHES BAY BRIDGE  0542      62  220/ 21/ 24 1018.2F
CAPE HENRY VA    0542          200/ 10/ 19   N/A
WILLOUBY STN VA  0542          200/ 17/ 19 1019.3F
S CRANEY ISL VA  0542          200/ 14/ 19 1018.5F
CAPE HENRY BUOY  0542      64                N/A     2/ 4
1ST LANDING BUOY 0600   72 67              1018.4    1/ 2
CAPE CHARLES BUO 0521      61                N/A     2/ 4
64NM E OF VA BCH 0550   63 59  210/ 12/ 14 1020.6F   3/ 4   2/ 8
DUCK PIER NC     0542      58  210/ 15/ 19 1019.8F
44100 DUCK FRF   0505      62                N/A     3/ 5
44056 DUCK FRF   0530      60                N/A     2/ 7
OREGON INLET NC  0542      78  200/ 21/ 26 1020.6F
HATTERAS NC      0542      75  210/ 10/ 12 1021.3F
DIAMOND SHLS NC  0550   76 76  210/ 17/ 21 1021.5F   4/ 4   2/ 7
CAPE LOOKOUT NC  0600   73     190/ 15/ 17 1020.5F
$$




USA.gov is the U.S. government's official web portal to all federal, state and local government web resources and services.